Location: Newark
(0.5481°S, 166.9394°E)
Time: 07:15:01
(UTC+00:00)

LightSail 2 - Visible Passes

Search period start: 20 October 2019 00:00
Search period end: 30 October 2019 00:00
Orbit: 707 x 722 km, 24.0° (Epoch: 19 October)

Date Brightness Start Highest point End Pass type
(mag) Time Alt. Az. Time Alt. Az. Time Alt. Az.
22 Oct 7.2 07:39:38 10° N 07:41:18 11° NNE 07:41:57 11° NNE visible
23 Oct 7.0 08:25:14 10° NNW 08:27:15 19° NNW 08:27:15 19° NNW visible
24 Oct 6.7 07:28:13 10° NNW 07:31:50 19° NNE 07:33:36 16° NE visible
24 Oct 7.9 09:12:23 10° WNW 09:12:38 11° WNW 09:12:38 11° WNW visible
24 Oct 7.9 18:08:34 10° S 18:09:49 11° SSE 18:11:05 10° SSE visible
25 Oct 5.7 08:14:56 10° NW 08:19:04 43° N 08:19:04 43° N visible
26 Oct 6.0 07:17:37 10° NW 07:22:12 32° NNE 07:25:33 16° E visible
26 Oct 7.2 09:02:40 10° WNW 09:04:36 23° WNW 09:04:36 23° WNW visible
26 Oct 7.6 17:56:55 10° SSW 18:00:22 18° SSE 18:03:48 10° ESE visible
27 Oct 5.0 08:04:58 10° WNW 08:10:07 87° NNE 08:11:10 58° ESE visible
27 Oct 7.7 17:00:08 10° S 17:02:33 13° SSE 17:04:57 10° SE visible
28 Oct 5.3 07:07:24 10° NW 07:12:28 59° NNE 07:17:32 10° ESE visible
28 Oct 6.8 08:53:20 10° W 08:56:48 31° SW 08:56:48 31° SW visible
28 Oct 6.9 17:46:14 10° SW 17:50:45 29° SSE 17:55:13 10° E visible
29 Oct 5.8 07:55:21 10° W 08:00:20 51° SSW 08:03:25 22° SE visible
29 Oct 7.3 16:49:49 13° SSW 16:52:59 21° SSE 16:56:54 10° ESE visible
